Surface/Precipitation History
11/20/2017 06:52  to  11/21/2017 06:52
Change End Date:
Date/Time
(MST)
Sf
Temp Chem Water Layer Surface Precipitation
Sfc Pvt Sub Frz Factor Pct Dpth DpthThk IcePct Cond Salin FI Type Intens Accum Rate
11/21/2017 06:40 Ice Watch 31.3F - - - 65 - - - - 1 mhos 0 - None None - -
11/21/2017 06:39 Ice Watch 31.3F - - - 65 - - - - 1 mhos 0 - None None - -
11/21/2017 06:29 Ice Watch 31.1F - - - 65 - - - - 1 mhos 0 - None None - -
11/21/2017 06:25 Ice Watch 31.1F - - - 70 - - - - 1 mhos 0 - None None - -
11/21/2017 06:19 Other - - - - - - - - - - - - None None - -
11/21/2017 06:10 Ice Warning 31.1F - - 32F 55 0% - - 100% 1 mhos 0 - None None - -
11/21/2017 06:07 Ice Warning 31.1F - - 32F 55 0% - - 100% 1 mhos 0 - None None - -
11/21/2017 05:57 Ice Warning 30.9F - - 32F 55 0% - - 100% 1 mhos 0 - None None - -
11/21/2017 05:55 Ice Warning 30.9F - - 32F 55 0% - - 100% 1 mhos 0 - None None - -
11/21/2017 05:47 Ice Warning 30.9F - - 32F 55 0% - - 100% 1 mhos 0 - None None - -
11/21/2017 05:40 Ice Warning 30.9F - - 32F 55 0% - - 100% 1 mhos 0 - None None - -
11/21/2017 05:37 Ice Warning 30.9F - - 32F 60 0% - - 100% 1 mhos 0 - None None - -
11/21/2017 05:27 Ice Warning 30.7F - - 32F 60 0% - - 100% 1 mhos 0 - None None - -
11/21/2017 05:25 Ice Warning 30.9F - - 32F 60 0% - - 100% 1 mhos 0 - None None - -
11/21/2017 05:17 Ice Warning 30.4F - - 32F 65 0% - - 100% 1 mhos 0 - None None - -
Date/Time
(MST)
Sf
Temp Chem Water Layer Surface Precipitation
Sfc Pvt Sub Frz Factor Pct Dpth DpthThk IcePct Cond Salin FI Type Intens Accum Rate
11/21/2017 05:10 Ice Warning 30.7F - - 32F 30 0% - - 100% 1 mhos 0 - None None - -
11/21/2017 05:07 Ice Warning 30.9F - - 32F 30 0% - - 100% 1 mhos 0 - None None - -
11/21/2017 04:57 Ice Warning 30.9F - - 32F 35 0% - - 100% 1 mhos 0 - None None - -
11/21/2017 04:55 Ice Warning 30.9F - - 32F 35 0% - - 100% 1 mhos 0 - None None - -
11/21/2017 04:47 Ice Warning 30.7F - - 32F 25 0% - - 100% 1 mhos 0 - None None - -
11/21/2017 04:40 Ice Warning 30.7F - - 32F 25 0% - - 100% 1 mhos 0 - None None - -
11/21/2017 04:37 Ice Warning 30.7F - - 32F 25 0% - - 100% 1 mhos 0 - None None - -
11/21/2017 04:27 Ice Warning 30.6F - - 32F 25 0% - - 100% 1 mhos 0 - None None - -
11/21/2017 04:25 Ice Warning 30.7F - - 32F 20 0% - - 100% 1 mhos 0 - None None - -
11/21/2017 04:17 Ice Warning 30.7F - - 32F 25 0% - - 100% 1 mhos 0 - None None - -
11/21/2017 04:10 Ice Warning 30.7F - - 32F 25 0% - - 100% 1 mhos 0 - None None - -
11/21/2017 04:07 Ice Warning 30.7F - - 32F 25 0% - - 100% 1 mhos 0 - None None - -
11/21/2017 03:57 Ice Warning 30.9F - - 32F 25 0% - - 100% 1 mhos 0 - None None - -
11/21/2017 03:55 Ice Warning 30.9F - - 32F 25 0% - - 100% 1 mhos 0 - None None - -
11/21/2017 03:47 Ice Warning 31.3F - - 32F 30 0% - - 100% 1 mhos 0 - None None - -
Date/Time
(MST)
Sf
Temp Chem Water Layer Surface Precipitation
Sfc Pvt Sub Frz Factor Pct Dpth DpthThk IcePct Cond Salin FI Type Intens Accum Rate
11/21/2017 03:40 Ice Warning 31.3F - - 32F 25 0% - - 100% 1 mhos 0 - None None - -
11/21/2017 03:37 Ice Warning 31.1F - - 32F 25 0% - - 100% 1 mhos 0 - None None - -
11/21/2017 03:27 Ice Warning 31.1F - - 32F 25 0% - - 100% 1 mhos 0 - None None - -
11/21/2017 03:25 Ice Warning 31.1F - - 32F 25 0% - - 100% 1 mhos 0 - None None - -
11/21/2017 03:17 Ice Warning 30.9F - - 32F 25 0% - - 100% 1 mhos 0 - None None - -
11/21/2017 03:10 Ice Warning 30.7F - - 32F 25 0% - - 100% 1 mhos 0 - None None - -
11/21/2017 03:07 Ice Warning 30.7F - - 32F 25 0% - - 100% 1 mhos 0 - None None - -
11/21/2017 02:57 Ice Warning 30.7F - - 32F 20 0% - - 100% 1 mhos 0 - None None - -
11/21/2017 02:55 Ice Warning 30.7F - - 32F 20 0% - - 100% 1 mhos 0 - None None - -
11/21/2017 02:46 Ice Warning 30.4F - - 32F 15 0% - - 100% 1 mhos 0 - None None - -
11/21/2017 02:40 Ice Warning 30.7F - - 32F 15 0% - - 100% 1 mhos 0 - None None - -
11/21/2017 02:36 Ice Warning 30.7F - - 32F 15 0% - - 100% 1 mhos 0 - None None - -
11/21/2017 02:26 Ice Warning 31.3F - - 32F 15 0% - - 100% 2 mhos 0 - None None - -
11/21/2017 02:25 Ice Warning 31.3F - - 32F 15 0% - - 100% 2 mhos 0 - None None - -
11/21/2017 02:16 Ice Warning 31.5F - - 32F 20 0% - - 100% 2 mhos 0 - None None - -
Date/Time
(MST)
Sf
Temp Chem Water Layer Surface Precipitation
Sfc Pvt Sub Frz Factor Pct Dpth DpthThk IcePct Cond Salin FI Type Intens Accum Rate
11/21/2017 02:10 Ice Warning 31.5F - - 32F 20 0% - - 100% 1 mhos 0 - None None - -
11/21/2017 02:06 Ice Warning 31.6F - - 32F 25 0% - - 100% 1 mhos 0 - None None - -
11/21/2017 01:56 Ice Warning 31.6F - - 32F 30 0% - - 100% 1 mhos 0 - None None - -
11/21/2017 01:46 Ice Warning 31.6F - - 32F 30 0% - - 100% 1 mhos 0 - None None - -
11/21/2017 01:41 Ice Warning 31.6F - - 32F 35 0% - - 100% 1 mhos 0 - None None - -
11/21/2017 01:36 Ice Warning 31.5F - - 32F 35 0% - - 100% 1 mhos 0 - Yes - - -
11/21/2017 01:26 Ice Warning 31.5F - - 32F 30 0% - - 100% 1 mhos 0 - None None - -
11/21/2017 01:26 Ice Warning 31.5F - - 32F 35 0% - - 100% 1 mhos 0 - None None - -
11/21/2017 01:16 Ice Warning 31.5F - - 32F 20 0% - - 100% 2 mhos 0 - None None - -
11/21/2017 01:06 Ice Warning 31.6F - - 32F 25 0% - - 100% 2 mhos 0 - None None - -
11/21/2017 00:56 Ice Warning 32.0F - - 32F 25 0% - - 100% 2 mhos 0 - None None - -
11/21/2017 00:46 Ice Warning 32.0F - - 32F 35 0% - - 100% 2 mhos 0 - None None - -
11/21/2017 00:36 Ice Warning 32.0F - - 32F 35 0% - - 100% 2 mhos 0 - None None - -
11/21/2017 00:26 Ice Warning 32.0F - - 32F 40 0% - - 100% 1 mhos 0 - None None - -
11/21/2017 00:26 Ice Warning 32.0F - - 32F 35 0% - - 100% 1 mhos 0 - None None - -
Date/Time
(MST)
Sf
Temp Chem Water Layer Surface Precipitation
Sfc Pvt Sub Frz Factor Pct Dpth DpthThk IcePct Cond Salin FI Type Intens Accum Rate
11/21/2017 00:16 Ice Warning 32.0F - - 32F 35 0% - - 100% 1 mhos 0 - None None - -
11/21/2017 00:11 Ice Warning 32.0F - - 32F 40 0% - - 100% 1 mhos 0 - None None - -
11/21/2017 00:06 Ice Warning 32.0F - - 32F 40 0% - - 100% 1 mhos 0 - None None - -
11/20/2017 23:56 Ice Warning 31.8F - - 32F 40 0% - - 100% 1 mhos 0 - None None - -
11/20/2017 23:56 Ice Warning 31.8F - - 32F 40 0% - - 100% 1 mhos 0 - None None - -
11/20/2017 23:46 Ice Warning 31.8F - - 32F 60 0% - - 100% 1 mhos 0 - None None - -
11/20/2017 23:36 Ice Warning 32.0F - - 32F 80 0% - - 100% 2 mhos 0 - Yes - - -
11/20/2017 23:26 Wet 32.2F - - 32F 75 0% 0.00 in - 0% 1 mhos 0 - None None - -
11/20/2017 23:25 Ice Warning 32.0F - - 32F 75 0% - - 100% 1 mhos 0 - None None - -
11/20/2017 23:15 Ice Warning 32.0F - - 32F 95 0% - - 100% 2 mhos 0 - None None - -
11/20/2017 23:11 Ice Warning 32.0F - - 32F 95 0% - - 100% 2 mhos 0 - None None - -
11/20/2017 23:05 Ice Warning 32.0F - - 32F 90 0% - - 100% 1 mhos 0 - None None - -
11/20/2017 22:55 Wet 32.2F - - 32F 40 0% 0.00 in - 0% 1 mhos 0 - None None - -
11/20/2017 22:45 Wet 32.2F - - 32F 25 0% 0.00 in - 0% 1 mhos 0 - None None - -
11/20/2017 22:41 Wet 32.2F - - 32F 25 0% 0.00 in - 0% 1 mhos 0 - None None - -
Date/Time
(MST)
Sf
Temp Chem Water Layer Surface Precipitation
Sfc Pvt Sub Frz Factor Pct Dpth DpthThk IcePct Cond Salin FI Type Intens Accum Rate
11/20/2017 22:35 Wet 32.2F - - 32F 10 0% 0.00 in - 0% 0 mhos 0 - None None - -
11/20/2017 22:25 Ice Warning 32.0F - - 32F 15 0% - - 100% 0 mhos 0 - None None - -
11/20/2017 22:15 Wet 32.2F - - 32F 20 0% 0.00 in - 0% 0 mhos 0 - None None - -
11/20/2017 22:05 Ice Warning 32.0F - - 32F 25 0% - - 100% 0 mhos 0 - None None - -
11/20/2017 21:55 Wet 32.2F - - 32F 50 0% 0.00 in - 0% 0 mhos 0 - None None - -
11/20/2017 21:55 Wet 32.2F - - 32F 50 0% 0.00 in - 0% 0 mhos 0 - None None - -
11/20/2017 21:45 Wet 32.2F - - 32F 25 0% 0.00 in - 0% 0 mhos 0 - None None - -
11/20/2017 21:41 Wet 32.2F - - 32F 15 0% 0.00 in - 0% 0 mhos 0 - None None - -
11/20/2017 21:35 Ice Warning 31.8F - - 32F 15 0% - - 100% 1 mhos 0 - None None - -
11/20/2017 21:25 Wet 32.9F - - 32F 65 0% 0.00 in - 0% 0 mhos 0 - Yes - - -
11/20/2017 21:25 Wet 33.1F - - 32F 70 0% 0.00 in - 0% 0 mhos 0 - Yes - - -
11/20/2017 21:15 Wet 33.3F - - 32F 90 0% 0.00 in - 0% 0 mhos 0 - Yes - - -
11/20/2017 21:10 Wet 33.3F - - 32F 95 0% 0.00 in - 0% 1 mhos 0 - Yes - - -
11/20/2017 21:05 Wet 33.6F - - 32F 35 0% 0.00 in - 0% 1 mhos 0 - Yes - - -
11/20/2017 20:56 Wet 33.6F - - 32F 15 0% 0.00 in - 0% 1 mhos 0 - Yes - - -
Date/Time
(MST)
Sf
Temp Chem Water Layer Surface Precipitation
Sfc Pvt Sub Frz Factor Pct Dpth DpthThk IcePct Cond Salin FI Type Intens Accum Rate
11/20/2017 20:55 Wet 33.6F - - 32F 10 0% 0.00 in - 0% 1 mhos 0 - Yes - - -
11/20/2017 20:45 Wet 33.3F - - 32F 15 0% 0.00 in - 0% 1 mhos 0 - Yes - - -
11/20/2017 20:41 Wet 33.1F - - 32F 70 0% 0.00 in - 0% 0 mhos 0 - Yes - - -
11/20/2017 20:35 Wet 33.1F - - 32F 20 0% 0.00 in - 0% 1 mhos 0 - Yes - - -
11/20/2017 20:25 Wet 32.7F - - 32F 35 0% 0.00 in - 0% 1 mhos 0 - Yes - - -
11/20/2017 20:15 Wet 32.9F - - 32F 15 0% 0.00 in - 0% 1 mhos 0 - None None - -
11/20/2017 20:11 Wet 32.5F - - 32F 30 0% 0.00 in - 0% 1 mhos 0 - None None - -
11/20/2017 20:05 Wet 32.9F - - 32F 25 0% 0.00 in - 0% 1 mhos 0 - None None - -
11/20/2017 19:56 Wet 33.3F - - 32F 25 0% 0.00 in - 0% 1 mhos 0 - Yes - - -
11/20/2017 19:55 Wet 33.1F - - 32F 40 0% 0.00 in - 0% 1 mhos 0 - Yes - - -
11/20/2017 19:44 Wet 33.1F - - 32F 20 0% 0.00 in - 0% 1 mhos 0 - Yes - - -
11/20/2017 19:41 Wet 33.1F - - 32F 15 0% 0.00 in - 0% 1 mhos 0 - None None - -
11/20/2017 19:34 Wet 33.1F - - 32F 30 0% 0.00 in - 0% 1 mhos 0 - None None - -
11/20/2017 19:26 Wet 33.1F - - 32F 30 0% 0.00 in - 0% 1 mhos 0 - Yes - - -
11/20/2017 19:24 Wet 33.1F - - 32F 30 0% 0.00 in - 0% 1 mhos 0 - Yes - - -
Date/Time
(MST)
Sf
Temp Chem Water Layer Surface Precipitation
Sfc Pvt Sub Frz Factor Pct Dpth DpthThk IcePct Cond Salin FI Type Intens Accum Rate
11/20/2017 19:14 Wet 32.9F - - 32F 20 0% 0.00 in - 0% 1 mhos 0 - Yes - - -
11/20/2017 19:11 Wet 32.9F - - 32F 10 0% 0.00 in - 0% 1 mhos 0 - Yes - - -
11/20/2017 19:04 Wet 32.9F - - 32F 20 0% 0.00 in - 0% 1 mhos 0 - None None - -
11/20/2017 18:56 Wet 32.7F - - 32F 10 0% 0.00 in - 0% 1 mhos 0 - None None - -
11/20/2017 18:54 Wet 32.7F - - 32F 10 0% 0.00 in - 0% 1 mhos 0 - None None - -
11/20/2017 18:44 Wet 32.9F - - 32F 30 0% 0.00 in - 0% 1 mhos 0 - None None - -
11/20/2017 18:41 Wet 32.5F - - 32F 10 0% 0.00 in - 0% 1 mhos 0 - None None - -
11/20/2017 18:34 Wet 32.7F - - 32F 10 0% 0.00 in - 0% 1 mhos 0 - None None - -
11/20/2017 18:26 Wet 32.7F - - 32F 5 0% 0.00 in - 0% 1 mhos 0 - None None - -
11/20/2017 18:24 Wet 32.7F - - 32F 5 0% 0.00 in - 0% 1 mhos 0 - None None - -
11/20/2017 18:14 Wet 32.9F - - 32F 5 0% 0.00 in - 0% 1 mhos 0 - None None - -
11/20/2017 18:11 Wet 32.5F - - 32F 15 0% 0.00 in - 0% 1 mhos 0 - None None - -
11/20/2017 18:04 Wet 32.7F - - 32F 10 0% 0.00 in - 0% 1 mhos 0 - Yes - - -
11/20/2017 17:56 Wet 33.4F - - 32F 10 0% 0.00 in - 0% 0 mhos 0 - None None - -
11/20/2017 17:54 Wet 33.6F - - 32F 15 0% 0.00 in - 0% 0 mhos 0 - None None - -
Date/Time
(MST)
Sf
Temp Chem Water Layer Surface Precipitation
Sfc Pvt Sub Frz Factor Pct Dpth DpthThk IcePct Cond Salin FI Type Intens Accum Rate
11/20/2017 17:44 Wet 33.3F - - 32F 10 0% 0.00 in - 0% 0 mhos 0 - Yes - - -
11/20/2017 17:41 Wet 33.3F - - 32F 10 0% 0.00 in - 0% 0 mhos 0 - None None - -
11/20/2017 17:34 Wet 33.1F - - 32F 5 0% 0.00 in - 0% 0 mhos 0 - Yes - - -
11/20/2017 17:26 Wet 33.1F - - 32F 10 0% 0.00 in - 0% 0 mhos 0 - Yes - - -
11/20/2017 17:24 Wet 33.1F - - 32F 5 0% 0.00 in - 0% 0 mhos 0 - Yes - - -
11/20/2017 17:14 Wet 33.4F - - 32F 15 0% 0.00 in - 0% 0 mhos 0 - Yes - - -
11/20/2017 17:11 Wet 33.4F - - 32F 10 0% 0.00 in - 0% 0 mhos 0 - Yes - - -
11/20/2017 17:04 Wet 33.3F - - 32F 30 0% 0.00 in - 0% 0 mhos 0 - Yes - - -
11/20/2017 16:54 Wet 33.6F - - 32F 10 0% 0.00 in - 0% 0 mhos 0 - Yes - - -
11/20/2017 16:44 Wet 33.1F - - 32F 5 0% 0.00 in - 0% 0 mhos 0 - Yes - - -
11/20/2017 16:41 Wet 33.4F - - 32F 70 0% 0.00 in - 0% 0 mhos 0 - Yes - - -
11/20/2017 16:34 Wet 33.1F - - 32F 40 0% 0.00 in - 0% 0 mhos 0 - Yes - - -
11/20/2017 16:26 Wet 34.2F - - 32F 45 0% 0.00 in - 0% 0 mhos 0 - Yes - - -
11/20/2017 16:24 Wet 34.2F - - 32F 40 0% 0.00 in - 0% 0 mhos 0 - Yes - - -
11/20/2017 16:14 Wet 34.3F - - 32F 80 0% 0.00 in - 0% 0 mhos 0 - Yes - - -
Date/Time
(MST)
Sf
Temp Chem Water Layer Surface Precipitation
Sfc Pvt Sub Frz Factor Pct Dpth DpthThk IcePct Cond Salin FI Type Intens Accum Rate
11/20/2017 16:11 Wet 34.3F - - 32F 70 0% 0.00 in - 0% 0 mhos 0 - Yes - - -
11/20/2017 16:03 Wet 33.6F - - 32F 65 0% 0.00 in - 0% 0 mhos 0 - Yes - - -
11/20/2017 15:55 Wet 33.8F - - 32F 75 0% 0.00 in - 0% 0 mhos 0 - Yes - - -
11/20/2017 15:53 Wet 34.0F - - 32F 90 0% 0.00 in - 0% 0 mhos 0 - Yes - - -
11/20/2017 15:43 Wet 33.3F - - 32F 35 0% 0.00 in - 0% 1 mhos 0 - Yes - - -
11/20/2017 15:40 Wet 33.3F - - 32F 95 0% 0.00 in - 0% 0 mhos 0 - Yes - - -
11/20/2017 15:33 Wet 33.8F - - 32F 35 0% 0.00 in - 0% 1 mhos 0 - Yes - - -
11/20/2017 15:25 Wet 33.8F - - 32F 85 0% 0.00 in - 0% 1 mhos 0 - Yes - - -
11/20/2017 15:23 Wet 34.0F - - 32F 95 0% 0.00 in - 0% 1 mhos 0 - Yes - - -
11/20/2017 15:13 Wet 34.0F - - 32F 90 0% 0.00 in - 0% 1 mhos 0 - Yes - - -
11/20/2017 15:11 Wet 33.8F - - 32F 60 0% 0.00 in - 0% 1 mhos 0 - Yes - - -
11/20/2017 15:03 Wet 33.6F - - 32F 95 0% 0.00 in - 0% 1 mhos 0 - Yes - - -
11/20/2017 14:55 Wet 33.3F - - 32F 95 0% 0.00 in - 0% 1 mhos 0 - Yes - - -
11/20/2017 14:53 Wet 33.3F - - 32F 95 0% 0.00 in - 0% 1 mhos 0 - Yes - - -
11/20/2017 14:43 Wet 33.3F - - 32F 95 0% 0.00 in - 0% 0 mhos 0 - Yes - - -
Date/Time
(MST)
Sf
Temp Chem Water Layer Surface Precipitation
Sfc Pvt Sub Frz Factor Pct Dpth DpthThk IcePct Cond Salin FI Type Intens Accum Rate
11/20/2017 14:40 Wet 32.7F - - 32F 95 0% 0.00 in - 0% 1 mhos 0 - Yes - - -
11/20/2017 14:33 Wet 32.5F - - 32F 85 0% 0.00 in - 0% 1 mhos 0 - Yes - - -
11/20/2017 14:25 Wet 32.7F - - 32F 75 0% 0.00 in - 0% 1 mhos 0 - Yes - - -
11/20/2017 14:23 Wet 32.9F - - 32F 95 0% 0.00 in - 0% 1 mhos 0 - Yes - - -
11/20/2017 14:13 Wet 32.5F - - 32F 70 0% 0.00 in - 0% 1 mhos 0 - Yes - - -
11/20/2017 14:11 Wet 32.7F - - 32F 5 0% 0.00 in - 0% 1 mhos 0 - Yes - - -
11/20/2017 14:03 Wet 32.9F - - 32F 25 0% 0.00 in - 0% 1 mhos 0 - Yes - - -
11/20/2017 13:56 Wet 33.3F - - 32F 5 0% 0.00 in - 0% 1 mhos 0 - Yes - - -
11/20/2017 13:53 Wet 33.6F - - 32F 25 0% 0.00 in - 0% 2 mhos 0 - Yes - - -
11/20/2017 13:43 Wet 35.2F - - 32F 25 0% 0.00 in - 0% 2 mhos 0 - Yes - - -
11/20/2017 13:41 Wet 35.6F - - 32F 20 0% 0.00 in - 0% 2 mhos 0 - Yes - - -
11/20/2017 13:33 Wet 36.1F - - 32F 35 0% 0.00 in - 0% 1 mhos 0 - Yes - - -
11/20/2017 13:26 Wet 37.0F - - 32F 10 0% 0.00 in - 0% 1 mhos 0 - Yes - - -
11/20/2017 13:23 Wet 37.2F - - 32F 10 0% 0.00 in - 0% 1 mhos 0 - Yes - - -
11/20/2017 13:13 Wet 38.1F - - 32F 5 0% 0.00 in - 0% 1 mhos 0 - Yes - - -
Date/Time
(MST)
Sf
Temp Chem Water Layer Surface Precipitation
Sfc Pvt Sub Frz Factor Pct Dpth DpthThk IcePct Cond Salin FI Type Intens Accum Rate
11/20/2017 13:11 Wet 38.1F - - 32F 5 0% 0.00 in - 0% 1 mhos 0 - Yes - - -
11/20/2017 13:03 Wet 38.5F - - 32F 5 0% 0.00 in - 0% 1 mhos 0 - Yes - - -
11/20/2017 12:56 Wet 39.2F - - 32F 5 0% 0.00 in - 0% 0 mhos 0 - Yes - - -
11/20/2017 12:53 Wet 39.6F - - 32F 5 0% 0.00 in - 0% 0 mhos 0 - Yes - - -
11/20/2017 12:43 Dry 40.6F - - - - - - - - 0 mhos 0 - Yes - - -
11/20/2017 12:41 Dry 40.8F - - - - - - - - 0 mhos 0 - Yes - - -
11/20/2017 12:32 Dry 40.8F - - - - - - - - 0 mhos 0 - Yes - - -
11/20/2017 12:22 Dry 41.0F - - - - - - - - 0 mhos 0 - None None - -
11/20/2017 12:12 Dry 41.2F - - - - - - - - 0 mhos 0 - None None - -
11/20/2017 12:11 Dry 41.2F - - - - - - - - 0 mhos 0 - None None - -
11/20/2017 12:02 Dry 41.5F - - - - - - - - 0 mhos 0 - None None - -
11/20/2017 11:56 Dry 41.4F - - - - - - - - 0 mhos 0 - None None - -
11/20/2017 11:52 Dry 41.2F - - - - - - - - 0 mhos 0 - None None - -
11/20/2017 11:42 Dry 41.2F - - - - - - - - 0 mhos 0 - None None - -
11/20/2017 11:32 Dry 39.9F - - - - - - - - 0 mhos 0 - None None - -
Date/Time
(MST)
Sf
Temp Chem Water Layer Surface Precipitation
Sfc Pvt Sub Frz Factor Pct Dpth DpthThk IcePct Cond Salin FI Type Intens Accum Rate
11/20/2017 11:26 Dry 39.4F - - - - - - - - 0 mhos 0 - None None - -
11/20/2017 11:22 Dry 39.0F - - - - - - - - 0 mhos 0 - None None - -
11/20/2017 11:12 Dry 38.7F - - - - - - - - 0 mhos 0 - None None - -
11/20/2017 11:11 Dry 38.5F - - - - - - - - 0 mhos 0 - None None - -
11/20/2017 11:02 Dry 38.7F - - - - - - - - 0 mhos 0 - None None - -
11/20/2017 10:56 Dry 38.5F - - - - - - - - 0 mhos 0 - None None - -
11/20/2017 10:52 Dry 38.1F - - - - - - - - 0 mhos 0 - None None - -
11/20/2017 10:42 Dry 37.6F - - - - - - - - 0 mhos 0 - None None - -
11/20/2017 10:41 Dry 37.6F - - - - - - - - 0 mhos 0 - None None - -
11/20/2017 10:32 Dry 37.2F - - - - - - - - 0 mhos 0 - None None - -
11/20/2017 10:26 Dry 36.7F - - - - - - - - 0 mhos 0 - None None - -
11/20/2017 10:22 Dry 36.5F - - - - - - - - 0 mhos 0 - None None - -
11/20/2017 10:12 Dry 36.0F - - - - - - - - 0 mhos 0 - None None - -
11/20/2017 10:02 Dry 35.4F - - - - - - - - 0 mhos 0 - None None - -
11/20/2017 09:52 Dry 35.4F - - - - - - - - 0 mhos 0 - None None - -
Date/Time
(MST)
Sf
Temp Chem Water Layer Surface Precipitation
Sfc Pvt Sub Frz Factor Pct Dpth DpthThk IcePct Cond Salin FI Type Intens Accum Rate
11/20/2017 09:42 Dry 34.9F - - - - - - - - 0 mhos 0 - None None - -
11/20/2017 09:32 Dry 34.2F - - - - - - - - 0 mhos 0 - None None - -
11/20/2017 09:26 Dry 34.2F - - - - - - - - 0 mhos 0 - None None - -
11/20/2017 09:22 Dry 34.0F - - - - - - - - 0 mhos 0 - None None - -
11/20/2017 09:12 Dry 33.6F - - - - - - - - 0 mhos 0 - None None - -
11/20/2017 09:11 Dry 33.6F - - - - - - - - 0 mhos 0 - None None - -
11/20/2017 09:01 Dry 33.1F - - - - - - - - 0 mhos 0 - None None - -
11/20/2017 08:56 Dry 33.3F - - - - - - - - 0 mhos 0 - None None - -
11/20/2017 08:51 Dry 33.3F - - - - - - - - 0 mhos 0 - None None - -
11/20/2017 08:41 Dry 33.3F - - - - - - - - 0 mhos 0 - None None - -
11/20/2017 08:41 Dry 32.9F - - - - - - - - 0 mhos 0 - None None - -
11/20/2017 08:31 Dry 32.5F - - - - - - - - 0 mhos 0 - None None - -
11/20/2017 08:26 Dry 32.7F - - - - - - - - 0 mhos 0 - None None - -
11/20/2017 08:21 Dry 32.5F - - - - - - - - 0 mhos 0 - None None - -
11/20/2017 08:11 Dry 32.2F - - - - - - - - 0 mhos 0 - None None - -
Date/Time
(MST)
Sf
Temp Chem Water Layer Surface Precipitation
Sfc Pvt Sub Frz Factor Pct Dpth DpthThk IcePct Cond Salin FI Type Intens Accum Rate
11/20/2017 08:01 Dry 31.6F - - - - - - - - 0 mhos 0 - None None - -
11/20/2017 07:56 Dry 31.6F - - - - - - - - 0 mhos 0 - None None - -
11/20/2017 07:51 Dry 31.5F - - - - - - - - 0 mhos 0 - None None - -
11/20/2017 07:41 Dry 31.3F - - - - - - - - 0 mhos 0 - None None - -
11/20/2017 07:31 Dry 30.7F - - - - - - - - 0 mhos 0 - None None - -
11/20/2017 07:21 Dry 30.4F - - - - - - - - 0 mhos 0 - None None - -
11/20/2017 07:11 Dry 29.8F - - - - - - - - 0 mhos 0 - None None - -
11/20/2017 07:11 Ice Watch 29.8F - - - 5 - - - - 0 mhos 0 - None None - -
11/20/2017 07:01 Dry 29.5F - - - - - - - - 0 mhos 0 - None None - -
Change End Date:

Copyright © 1998-2015 Vaisala, Inc.
All Rights Reserved
Send comments about the data to:
SCAN Web ® is a registered trademark of Vaisala, Inc.
SCAN Web Version 6.0